Green Bay, WI (54311)

4:42 AM CST on December 10, 2016 (GMT -0600)
McAuliffe Park | | Change Station
Active Advisory: Winter Storm Watch

Elev 755 ft 44.49 °N, 87.93 °W | Updated 25 seconds ago

Overcast
Overcast
16.9 °F
Feels Like 17 °F
N
2.0
Wind Variable Wind from NE

Today
High -- | Low -- °F
--% Chance of Precip.
Yesterday
High -- | Low -- °F
Precip. -- in
Pressure 30.46 in
Visibility 10.0 miles
Clouds Overcast 3700 ft
Windchill 17 °F
Dew Point 5 °F
Humidity 60%
Rainfall 0.00 in
Snow Depth Not available.
7:17 AM 4:11 PM
Waxing Gibbous, 82% visible
METAR KGRB 100953Z AUTO 26008KT 10SM OVC037 M07/M12 A3042 RMK AO2 SNE04 SLP315 P0000 T10671122
Pressure 30.46 in
Visibility 10.0 miles
Clouds Overcast 3700 ft
Windchill 17 °F
Dew Point 5 °F
Humidity 60%
Rainfall 0.00 in
Snow Depth Not available.
7:17 AM 4:11 PM
Waxing Gibbous, 82% visible
METAR KGRB 100953Z AUTO 26008KT 10SM OVC037 M07/M12 A3042 RMK AO2 SNE04 SLP315 P0000 T10671122

10-Day Weather Forecast

Almanac

Astronomy

Dec. 10, 2016 Rise Set
Actual Time
Civil Twilight
Nautical Twilight
Astronomical Twilight
Moon
Length of Visible Light
Length of Day
Tomorrow will be .
, % of the Moon is Illuminated

Today's Extremes

State Highs State Lows

Community

WunderPhotos

Upload Photos

1,956,536 photos uploaded!

WunderBlog® & News

Nearby

Air Quality

  Air Quality AQ Index Pollutant
Not available.

Snow Depth

Station Depth Elevation

Earthquake Activity

City Distance Mag. Time & Date
Minimum magnitude displayed is 2.5.

Coastal Water Temperatures

Place Temperature

Stations

Nearby Weather Stations

Station Location Temp. Windchill Dew Point Humidity Wind Precip. Elev Updated Type
                   

Watches & Warnings

Winter Storm Watch
Issued: 3:56 AM CST Dec. 10, 2016 – National Weather Service

... Winter Storm Watch remains in effect from this evening through
Sunday evening...

* timing... late this evening through Sunday evening. The heaviest
snow should fall Sunday.

* Snow accumulations... around 6 inches... and possibly an
additional inch or two at some locations near the lake.

* Main impact... hazardous travel will develop tonight and
continue through Sunday evening.

Precautionary/preparedness actions...

A Winter Storm Watch means there is a potential for significant
snow accumulations that may impact travel. Continue to monitor
the latest forecasts.